Flag for Germany Weather past 2 weeks in Ilmenau, Thuringia, Germany

45 °F

Rain. Partly cloudy.

Feels Like: 35 °F
Forecast: 43 / 48 °F
Wind: 25 mph from Northwest

Location: Erfurt-Bindersleben

Current Time: Nov 30, 2015 at 1:56:10 AM

Latest Report: Nov 30, 2015 at 1:20 AM

Visibility: N/A

Pressure: 29.80 "Hg

Humidity: 93%

Dew point: 43 °F

Location of IlmenauLocation

Historic Weather in Ilmenau — Graph


Ilmenau temperature yesterday

Maximum temperature yesterday: 50 °F (at 10:50 PM)
Minimum temperature yesterday: 36 °F (at 12:20 AM)
Average temperature yesterday: 42 °F

Past Weeks' High & Low Weather Summary

High57 °F (Nov 17, 1:20 PM)100% (Nov 21, 10:20 PM)30.24 "Hg (Nov 21, 10:20 PM)
Low23 °F (Nov 27, 6:50 AM)58% (Nov 18, 11:50 AM)29.39 "Hg (Nov 21, 4:50 AM)
Average41 °F83%29.83 "Hg
* Reported Nov 15 12:50 AM — Nov 30 12:50 AM, Ilmenau, Weather by CustomWeather, © 2015

Note: Actual official high and low records may vary slightly from our data, if they occured in-between our weather recording intervals... More about our weather records


Ilmenau weather history for previous 24 hours

Time TempWeatherWind HumidityBarometerVisibility
12:50 AM
Mon, Nov 30
48 °FLight rain. Passing clouds.36 mph82%29.74 "HgN/A
11:50 PM
Sun, Nov 29
50 °FPassing clouds.33 mph76%29.71 "HgN/A
11:20 PM50 °FPassing clouds.35 mph71%29.68 "HgN/A
10:50 PM50 °FPassing clouds.32 mph71%29.68 "HgN/A
10:20 PM48 °FPassing clouds.32 mph76%29.71 "HgN/A
9:50 PM48 °FLight rain. Partly cloudy.32 mph76%29.71 "HgN/A
9:20 PM48 °FLight rain. Partly cloudy.29 mph76%29.74 "HgN/A
8:50 PM48 °FPartly cloudy.31 mph76%29.74 "HgN/A
8:20 PM48 °FLight rain. Passing clouds.29 mph82%29.74 "HgN/A
7:50 PM48 °FLight rain. Passing clouds.33 mph82%29.77 "HgN/A
7:20 PM48 °FLight rain. Passing clouds.28 mph82%29.77 "HgN/A
6:50 PM46 °FLight rain. Passing clouds.26 mph87%29.77 "HgN/A
6:20 PM46 °FLight rain. Passing clouds.25 mph87%29.77 "HgN/A
5:50 PM46 °FLight rain. Passing clouds.29 mph82%29.77 "HgN/A
5:20 PM46 °FPassing clouds.24 mph82%29.77 "HgN/A
4:50 PM45 °FLight rain. Passing clouds.23 mph81%29.77 "HgN/A
4:20 PM46 °FLight rain. Partly cloudy.23 mph82%29.77 "HgN/A
3:50 PM46 °FBroken clouds.24 mph76%29.77 "HgN/A
3:20 PM45 °FPartly sunny.17 mph81%29.80 "HgN/A
2:50 PM45 °FPartly sunny.17 mph81%29.80 "HgN/A
2:20 PM45 °FPartly sunny.20 mph81%29.80 "HgN/A
1:50 PM43 °FLight rain. Partly sunny.18 mph87%29.80 "HgN/A
1:20 PM43 °FPartly sunny.21 mph81%29.80 "HgN/A
12:50 PM41 °FLight rain. Partly sunny.18 mph87%29.83 "HgN/A
12:20 PM41 °FLight rain. Partly sunny.17 mph87%29.83 "HgN/A
11:50 AM41 °FLight rain. Partly sunny.18 mph87%29.83 "HgN/A
11:20 AM41 °FLight rain. Partly sunny.22 mph87%29.83 "HgN/A
10:50 AM41 °FLight rain. Partly sunny.22 mph81%29.83 "HgN/A
10:20 AM39 °FPartly sunny.23 mph87%29.83 "HgN/A
9:50 AM39 °FLight rain. Partly sunny.22 mph87%29.83 "HgN/A
9:20 AM39 °FPartly sunny.23 mph87%29.83 "HgN/A
8:50 AM39 °FPartly sunny.23 mph81%29.83 "HgN/A
8:20 AM37 °FLight rain. Broken clouds.23 mph87%29.83 "HgN/A
7:50 AM37 °FLight rain. Partly cloudy.21 mph87%29.83 "HgN/A
7:20 AM37 °FLight rain. Partly cloudy.22 mph87%29.83 "HgN/A
6:20 AM37 °FLight rain. Partly cloudy.20 mph87%29.83 "HgN/A
5:50 AM37 °FLight rain. Passing clouds.18 mph87%29.83 "HgN/A
5:20 AM37 °FLight rain. Passing clouds.18 mph87%29.83 "HgN/A
4:50 AM37 °FLight rain. Passing clouds.22 mph87%29.83 "HgN/A
4:20 AM37 °FLight rain. Passing clouds.23 mph87%29.83 "HgN/A
3:50 AM37 °FLight rain. Passing clouds.25 mph81%29.83 "HgN/A
3:20 AM37 °FPassing clouds.24 mph81%29.83 "HgN/A
2:50 AM37 °FPassing clouds.25 mph81%29.86 "HgN/A
2:20 AM37 °FPassing clouds.26 mph81%29.86 "HgN/A
1:50 AM37 °FPassing clouds.20 mph75%29.86 "HgN/A
1:20 AM37 °FClear.20 mph75%29.89 "Hg10 mi
Weather by CustomWeather, © 2015

See weather overviewHow to use our weather pages